Regional Weather Roundup
Issued by NWS

Home | Current Version | Previous Version | Graphics & Text | Print | Product List | Glossary On
Versions: 1 2 3 4 5 6 7 8 9 10 11 12 13 14 15 16 17 18 19 20 21 22 23 24 25 26 27 28 29 30 31 32 33 34 35 36 37 38 39 40 41 42 43 44 45 46 47 48 49 50
000
ASUS43 KLMK 062010
RWRKY
KENTUCKY REGIONAL WEATHER ROUNDUP
NATIONAL WEATHER SERVICE LOUISVILLE KY
400 PM EDT WED MAY 06 2015

NOTE "FAIR" INDICATES FEW OR NO CLOUDS BELOW 12,000 FEET
WITH NO SIGNIFICANT WEATHER AND/OR OBSTRUCTIONS TO VISIBILITY.

KYZ001>023-026-027-061>063-070>075-062100-
WESTERN AND SOUTH CENTRAL KENTUCKY

CITY           SKY/WX    TMP DP  RH WIND       PRES   REMARKS
PADUCAH        MOSUNNY   82  56  40 SE8       30.09F
HENDERSON      MOSUNNY   82  54  36 SE7       30.10F
OWENSBORO      PTSUNNY   84  56  38 S7        30.12F
HOPKINSVILLE   MOSUNNY   83  58  42 E8        30.11F
BOWLING GREEN  MOSUNNY   84  56  38 CALM      30.12F
GLASGOW        MOSUNNY   84  57  39 S5        30.13F
$$

KYZ024-025-028>034-038-045-046-053-062100-
NORTH CENTRAL KENTUCKY

CITY           SKY/WX    TMP DP  RH WIND       PRES   REMARKS
LOUISVILLE/SDF PTSUNNY   86  54  33 S8        30.11F
LOUISVILLE/LOU MOSUNNY   84  54  35 CALM      30.13F
FORT KNOX      MOSUNNY   84  53  33 E6        30.12F
$$

KYZ035>037-039>044-047>052-055>060-089>105-062100-
NORTHEAST KENTUCKY

CITY           SKY/WX    TMP DP  RH WIND       PRES   REMARKS
LEXINGTON      PTSUNNY   83  55  38 VRB3      30.15F
COVINGTON      MOSUNNY   84  53  34 VRB3      30.15F
FRANKFORT      MOSUNNY   84  55  36 VRB7      30.14F
$$

KYZ054-064>069-076>088-106>120-062100-
SOUTHEAST KENTUCKY

CITY           SKY/WX    TMP DP  RH WIND       PRES   REMARKS
JACKSON        MOSUNNY   82  51  34 NW6       30.16F
LONDON         MOSUNNY   83  50  31 NE8       30.14F
SOMERSET       MOSUNNY   82  54  36 CALM      30.14F
MIDDLESBORO    MOSUNNY   83  58  41 NE18G24   30.15F
MONTICELLO     PTCLDY    82  59  45 W3        30.16F
$$



USA.gov is the U.S. government's official web portal to all federal, state and local government web resources and services.